Wind_Speed
20 21 22 22 23 23 24 25 25 23 22 21 25 28 29 30 30 31 32 32 33 34 34 35 36 37 38 39 41 42 43 43 44 45 45 45 45 45 45 45 44 44 44 43
21 21 22 23 23 24 25 25 26 26 23 24 27 28 29 29 30 31 31 32 33 34 34 35 36 37 38 39 40 41 41 41 42 42 42 42 42 43 43 43 42 42 42 42
22 22 23 23 23 24 25 26 27 27 25 26 27 28 28 29 29 29 30 31 32 33 33 34 34 35 36 37 38 39 40 40 40 40 40 40 40 40 40 40 40 40 40 40
21 22 23 22 23 24 25 26 27 27 27 26 26 27 28 29 29 29 29 31 31 32 32 33 33 34 35 36 37 37 38 38 38 38 38 38 37 37 37 37 37 37 36 36
21 22 23 23 22 23 24 25 26 26 26 26 26 26 28 28 28 29 29 30 31 31 32 32 32 33 34 34 35 36 36 36 37 37 37 36 35 35 35 35 34 34 33 33
21 22 22 23 23 24 24 25 25 25 25 25 25 25 26 27 26 27 27 28 29 29 30 30 31 31 32 32 33 33 33 33 34 34 34 34 34 33 32 32 31 31 31 31
21 22 22 22 22 23 23 24 23 23 23 23 23 23 24 24 24 25 25 26 26 27 28 29 29 30 30 29 29 29 29 29 30 30 30 31 31 31 30 30 29 29 30 29
22 23 22 22 22 22 23 23 22 22 22 22 22 22 22 22 22 23 24 24 24 25 25 26 27 28 28 28 27 27 27 28 28 28 28 28 28 28 28 28 28 28 29 29
22 23 23 22 22 22 23 23 22 22 22 22 22 22 22 22 21 21 22 22 23 24 25 25 26 26 26 26 26 26 26 26 26 26 27 27 28 28 28 28 28 28 28 28
22 23 23 22 22 22 22 22 23 23 23 23 23 23 23 23 22 22 22 22 22 23 24 24 24 25 25 25 25 25 25 26 26 26 27 27 27 27 27 27 28 28 28 29
23 23 24 24 24 24 23 23 23 23 23 23 23 23 23 23 23 23 23 23 23 23 23 23 24 25 25 25 25 26 26 26 26 26 26 27 27 27 28 28 29 29 29 30
23 24 24 24 24 25 25 25 25 24 25 24 24 24 23 24 24 24 24 24 24 24 24 24 25 25 26 26 26 26 26 27 27 28 28 28 27 28 28 28 29 30 30 30
24 25 26 26 27 27 27 27 27 27 26 26 25 25 25 24 24 24 25 25 25 25 25 25 25 25 26 26 27 27 27 27 27 28 28 28 28 29 29 30 30 30 31 31
25 26 27 28 29 29 29 29 29 29 28 28 27 27 27 26 26 26 26 26 26 26 26 26 26 27 27 27 27 28 28 28 29 30 30 30 30 30 30 31 31 31 32 32
24 25 26 28 29 30 30 30 30 30 30 29 28 28 28 28 28 28 28 28 28 27 28 28 28 28 28 29 29 30 30 30 31 31 31 31 31 31 31 32 32 32 33 34
22 23 24 26 27 28 29 29 30 30 30 30 29 29 29 29 29 29 29 29 29 29 29 29 30 30 30 30 30 30 31 32 32 32 33 33 33 34 34 34 34 34 34 35
21 22 23 24 25 26 27 28 28 29 29 30 30 30 30 30 30 30 30 31 31 31 31 31 31 31 31 32 32 32 32 32 32 33 33 34 34 35 35 35 35 36 36 36
22 23 23 23 24 25 27 28 29 30 30 31 31 31 31 31 31 31 31 31 31 31 31 30 30 31 31 32 32 32 32 33 33 33 33 34 35 35 35 36 36 36 37 37
23 24 24 25 26 27 28 29 29 30 31 31 32 32 32 32 32 31 30 30 30 30 30 30 30 30 30 30 31 31 32 32 33 33 33 33 34 34 35 35 35 36 37 37
26 27 27 27 28 28 28 28 29 29 30 31 32 32 32 31 31 31 31 31 31 31 31 31 31 31 30 30 30 30 30 31 32 32 32 33 33 33 34 34 35 36 37 37
30 30 30 31 31 31 31 30 30 30 30 31 32 32 32 32 31 31 31 32 32 32 31 31 31 31 31 31 30 29 29 30 30 31 31 31 32 32 33 34 34 35 35 36
33 33 33 33 33 32 32 31 31 31 31 31 31 31 32 32 32 31 31 31 31 31 31 31 30 30 30 31 30 30 29 29 29 29 30 30 31 31 31 32 32 33 33 34
37 36 36 35 35 34 33 33 32 32 31 31 31 31 31 31 31 31 31 30 30 29 29 29 29 29 30 30 30 30 29 29 29 29 29 29 29 30 30 30 31 31 32 32
40 39 38 37 37 36 35 34 34 34 33 32 31 30 30 30 31 31 30 30 29 29 29 28 28 28 28 28 29 29 29 29 29 29 29 29 29 30 30 30 30 30 30 31
41 40 39 38 38 37 36 34 33 33 32 32 32 31 31 31 30 30 30 30 29 29 29 29 28 28 28 28 28 28 28 28 28 29 29 29 29 29 29 29 29 29 29 29
42 40 39 38 36 35 35 34 33 32 32 32 32 32 31 31 30 30 30 30 29 29 29 29 28 28 27 27 27 27 27 28 28 29 29 29 29 29 28 29 29 29 30 30
41 39 38 36 35 34 33 32 32 32 32 32 32 32 31 31 30 30 30 30 29 29 29 29 29 28 28 27 27 26 26 27 27 27 27 27 27 27 28 28 29 29 30 31
Wind_Direction
228 230 230 230 232 236 239 242 246 246 247 247 248 250 251 253 255 256 257 257 257 256 256 256 256 257 257 257 257 257 258 259 260 261 262 263 264 265 266 267 267 268 269 269
234 235 235 236 238 241 244 247 250 251 251 251 252 254 256 257 259 260 260 260 260 259 258 258 259 259 259 259 259 259 260 261 262 262 262 263 263 264 264 265 265 266 267 268
238 238 238 239 241 244 246 248 251 253 254 255 255 256 258 259 261 262 261 260 260 260 259 259 260 260 260 260 261 260 260 261 262 262 262 263 264 264 265 265 265 266 266 268
240 241 243 244 244 247 249 250 251 253 256 257 257 258 259 260 261 261 260 259 260 260 259 259 260 260 260 260 260 260 261 261 261 261 262 263 263 264 265 265 265 265 266 267
244 245 247 248 249 249 250 251 253 255 257 258 259 259 260 261 260 260 260 260 259 259 259 259 260 261 261 261 261 261 261 262 262 262 262 263 264 265 265 264 264 265 265 265
248 249 249 249 250 252 253 254 254 256 257 258 259 259 260 260 260 259 259 259 258 258 258 259 260 261 261 261 261 261 262 262 262 262 262 262 263 263 264 263 263 263 263 263
251 251 250 249 249 251 252 254 255 256 256 257 258 259 259 260 260 259 259 257 257 257 257 258 259 259 260 261 261 261 262 263 262 262 262 261 261 261 262 261 262 262 261 262
251 253 252 251 251 251 253 254 255 255 256 256 257 257 258 258 259 259 258 256 255 256 257 258 259 259 259 260 260 260 262 262 261 261 261 261 261 261 261 261 261 261 261 262
253 254 255 254 254 253 253 254 255 256 256 256 257 257 258 258 258 258 258 257 256 256 258 259 259 259 258 258 259 260 260 260 261 261 261 262 262 262 262 261 261 261 262 262
256 256 256 255 254 254 254 255 255 256 257 257 258 259 258 257 258 258 257 256 258 259 258 257 258 257 257 258 259 259 260 261 261 262 263 264 264 262 262 262 263 263 263 264
256 257 257 257 256 256 256 257 257 258 259 259 259 259 259 258 258 258 258 257 257 258 257 257 258 258 257 258 259 259 260 261 261 262 264 264 264 264 264 264 264 264 264 264
256 257 258 259 260 259 258 259 259 259 260 261 261 260 259 259 259 259 259 258 258 259 258 259 260 259 259 259 259 259 260 262 262 262 263 263 263 265 266 265 266 266 265 266
257 258 258 259 260 260 260 261 261 260 260 261 261 260 259 258 259 259 260 259 259 258 259 260 260 262 262 262 262 262 261 262 263 263 262 263 264 265 266 266 267 267 267 267
261 261 261 262 262 261 261 262 261 260 260 260 261 261 261 260 260 261 261 261 262 260 260 260 261 263 264 263 263 263 263 263 263 263 263 263 264 265 266 266 267 268 268 269
269 267 266 266 265 263 261 261 261 260 260 260 261 261 261 262 262 262 262 262 262 262 261 261 263 264 265 265 264 263 263 263 264 264 264 263 264 265 266 267 267 268 269 270
277 275 272 269 268 264 262 262 261 260 259 259 259 260 262 262 262 262 262 263 262 262 263 263 264 265 266 266 266 265 264 264 264 264 264 264 264 265 266 266 267 269 270 272
285 284 281 277 272 267 264 264 262 260 258 259 259 260 261 262 262 262 262 262 262 263 264 265 265 266 266 266 266 266 265 265 265 264 264 264 265 265 266 267 268 269 271 272
288 286 284 282 278 272 268 265 263 262 261 260 261 261 262 262 262 262 262 262 262 262 263 264 265 266 267 266 267 266 266 266 266 266 266 266 266 267 267 268 268 269 270 271
297 293 289 285 280 276 271 268 266 264 262 261 262 262 261 261 261 262 262 261 262 262 262 263 265 267 267 267 268 268 267 267 267 267 267 267 268 268 268 268 269 270 271 272
299 296 292 288 284 280 275 271 269 267 264 262 261 260 259 259 259 260 261 261 262 262 263 263 264 266 267 267 268 268 268 268 268 268 268 268 269 269 270 270 271 272 273 274
298 295 292 288 284 281 277 274 271 269 267 264 261 259 258 257 258 259 261 262 262 262 262 263 264 265 265 266 267 268 269 269 269 269 269 270 270 271 271 272 273 274 274 275
297 294 291 288 285 282 278 274 271 269 268 266 262 260 259 258 258 258 260 261 261 261 261 262 263 264 265 265 266 267 268 269 271 271 271 271 272 273 273 274 274 274 275 276
296 294 291 288 284 280 277 274 272 270 269 267 263 260 259 258 257 258 258 259 259 260 261 262 264 265 266 265 265 266 267 269 270 271 272 273 274 274 275 276 276 277 277 277
295 293 291 288 284 280 276 273 271 269 268 265 262 259 258 257 257 257 257 257 258 258 260 262 263 265 266 265 265 266 266 268 269 270 272 274 274 275 275 276 277 277 277 278
296 294 291 287 284 281 277 273 271 269 265 261 258 257 257 257 257 256 257 258 258 258 259 261 263 265 266 266 265 266 267 268 270 271 273 274 275 275 276 276 277 278 278 279
296 294 291 289 286 281 276 272 269 266 263 258 255 255 256 257 256 256 256 257 258 258 259 260 262 264 265 265 266 267 268 270 271 272 274 274 275 275 276 277 277 278 279 280
294 293 291 290 286 282 277 271 267 264 262 258 254 252 252 253 255 255 256 256 256 257 259 260 261 262 263 265 266 267 269 271 273 274 275 276 276 276 276 278 279 280 281 281
Height
5647 5649 5651 5653 5655 5657 5659 5661 5663 5666 5667 5669 5669 5669 5671 5672 5673 5675 5676 5677 5678 5679 5680 5682 5683 5684 5686 5687 5689 5690 5691 5692 5693 5694 5695 5695 5696 5697 5697 5698 5698 5698 5698 5698
5643 5644 5646 5648 5650 5652 5654 5655 5657 5659 5661 5661 5662 5663 5664 5665 5666 5667 5668 5669 5669 5670 5672 5673 5674 5675 5676 5677 5678 5679 5680 5681 5682 5683 5684 5684 5685 5685 5686 5686 5686 5687 5687 5687
5639 5640 5642 5644 5646 5647 5648 5650 5651 5652 5655 5654 5655 5656 5657 5658 5659 5660 5660 5661 5661 5662 5663 5664 5665 5666 5667 5668 5669 5669 5670 5671 5672 5672 5673 5673 5674 5674 5674 5675 5675 5675 5675 5676
5633 5636 5637 5641 5640 5641 5642 5643 5644 5645 5646 5647 5648 5649 5649 5650 5651 5651 5652 5652 5653 5653 5654 5655 5656 5657 5657 5658 5659 5659 5660 5661 5661 5662 5662 5663 5663 5664 5664 5664 5665 5665 5665 5665
5629 5630 5631 5634 5634 5635 5636 5637 5638 5639 5640 5640 5641 5642 5642 5642 5643 5643 5643 5644 5644 5645 5646 5647 5648 5648 5648 5649 5649 5650 5650 5651 5652 5652 5653 5653 5653 5654 5654 5655 5655 5655 5655 5656
5623 5624 5626 5628 5628 5628 5630 5630 5631 5632 5633 5633 5634 5635 5635 5635 5635 5635 5635 5636 5636 5637 5638 5638 5639 5639 5640 5640 5641 5641 5641 5642 5642 5643 5643 5644 5644 5645 5645 5645 5646 5646 5647 5647
5617 5618 5620 5621 5621 5623 5625 5625 5625 5625 5626 5626 5626 5627 5628 5627 5627 5627 5628 5628 5628 5629 5630 5630 5631 5631 5632 5632 5632 5633 5633 5633 5634 5634 5635 5635 5636 5636 5636 5637 5637 5638 5638 5639
5611 5612 5615 5614 5615 5617 5617 5617 5618 5618 5619 5619 5620 5620 5620 5620 5620 5620 5620 5621 5621 5622 5622 5623 5623 5623 5624 5624 5625 5625 5625 5625 5626 5626 5627 5627 5628 5628 5628 5629 5629 5630 5630 5630
5606 5608 5607 5608 5608 5609 5610 5611 5611 5612 5612 5613 5613 5613 5613 5614 5614 5614 5614 5614 5614 5615 5615 5615 5616 5616 5616 5617 5617 5617 5618 5618 5619 5619 5619 5620 5620 5621 5621 5621 5621 5622 5622 5622
5599 5599 5600 5601 5601 5602 5603 5604 5604 5605 5605 5606 5606 5606 5606 5607 5607 5607 5607 5607 5607 5608 5608 5608 5608 5609 5609 5610 5610 5610 5611 5611 5611 5612 5612 5613 5613 5613 5613 5613 5614 5614 5614 5614
5592 5593 5593 5594 5594 5595 5596 5596 5597 5598 5598 5598 5599 5599 5599 5600 5600 5600 5600 5600 5600 5601 5601 5601 5601 5601 5602 5602 5603 5603 5604 5604 5604 5605 5605 5605 5605 5605 5606 5606 5606 5606 5606 5606
5586 5586 5587 5587 5587 5587 5588 5589 5589 5590 5590 5591 5591 5592 5592 5592 5592 5592 5593 5593 5593 5593 5594 5594 5594 5594 5595 5595 5595 5596 5596 5596 5597 5597 5597 5597 5597 5598 5597 5598 5597 5597 5597 5597
5579 5579 5579 5579 5579 5579 5580 5581 5581 5582 5582 5583 5583 5583 5584 5584 5584 5584 5585 5585 5585 5586 5586 5586 5586 5587 5587 5587 5588 5588 5588 5588 5588 5589 5589 5589 5589 5589 5589 5589 5589 5588 5588 5588
5571 5571 5571 5570 5570 5570 5571 5572 5572 5572 5573 5574 5574 5575 5575 5575 5576 5576 5577 5577 5577 5577 5578 5578 5578 5579 5579 5579 5579 5579 5579 5580 5580 5580 5580 5580 5580 5580 5580 5580 5580 5579 5579 5578
5563 5563 5562 5561 5560 5560 5561 5562 5562 5563 5563 5564 5565 5565 5566 5566 5567 5567 5568 5568 5568 5569 5569 5569 5570 5570 5570 5570 5570 5570 5570 5570 5570 5570 5570 5571 5571 5571 5571 5571 5570 5570 5569 5569
5556 5555 5554 5553 5551 5551 5551 5552 5552 5553 5554 5554 5555 5556 5556 5557 5557 5558 5558 5559 5559 5559 5560 5560 5560 5560 5560 5560 5560 5560 5560 5560 5560 5560 5561 5561 5561 5561 5561 5561 5560 5560 5559 5558
5550 5548 5546 5545 5543 5543 5542 5542 5542 5543 5544 5545 5545 5546 5546 5547 5547 5548 5548 5549 5549 5549 5550 5550 5550 5550 5550 5550 5550 5550 5550 5550 5550 5550 5550 5550 5550 5550 5550 5550 5550 5549 5549 5547
5543 5541 5539 5538 5536 5535 5534 5534 5534 5534 5534 5535 5535 5536 5536 5537 5537 5538 5538 5538 5539 5539 5540 5540 5540 5540 5540 5540 5539 5539 5539 5539 5539 5539 5539 5539 5539 5539 5539 5539 5539 5538 5537 5536
5536 5534 5531 5530 5528 5526 5525 5525 5524 5524 5524 5524 5525 5525 5525 5526 5527 5527 5528 5528 5529 5529 5530 5530 5530 5530 5530 5529 5529 5529 5529 5529 5529 5529 5529 5528 5528 5528 5528 5527 5527 5527 5526 5525
5528 5525 5523 5520 5518 5517 5516 5515 5514 5514 5513 5513 5513 5514 5514 5515 5516 5516 5517 5518 5518 5519 5519 5519 5520 5520 5520 5519 5519 5519 5519 5518 5518 5518 5518 5518 5518 5517 5517 5516 5516 5515 5514 5513
5519 5516 5513 5510 5508 5506 5505 5504 5503 5503 5502 5502 5502 5502 5503 5504 5505 5506 5506 5507 5507 5508 5508 5509 5509 5509 5509 5509 5509 5509 5509 5508 5508 5508 5508 5507 5507 5507 5506 5505 5505 5504 5503 5502
5509 5505 5502 5499 5497 5495 5493 5492 5492 5491 5491 5490 5491 5491 5492 5493 5494 5494 5495 5496 5496 5497 5497 5498 5499 5499 5499 5499 5499 5499 5499 5499 5498 5498 5497 5497 5497 5496 5495 5495 5494 5493 5492 5491
5497 5493 5490 5487 5485 5483 5481 5480 5480 5479 5479 5479 5479 5480 5480 5481 5482 5483 5484 5485 5486 5486 5487 5488 5488 5489 5489 5489 5489 5489 5489 5489 5488 5488 5488 5487 5487 5486 5485 5484 5483 5482 5481 5480
5484 5480 5476 5473 5471 5469 5468 5467 5466 5466 5466 5467 5467 5468 5469 5470 5471 5472 5473 5474 5475 5476 5477 5478 5478 5479 5479 5479 5479 5479 5479 5479 5479 5478 5478 5478 5477 5476 5475 5474 5473 5472 5471 5470
5470 5466 5462 5459 5456 5455 5454 5453 5453 5453 5453 5454 5455 5456 5457 5459 5460 5461 5462 5464 5465 5466 5467 5468 5468 5469 5469 5469 5469 5469 5469 5469 5469 5469 5468 5468 5467 5466 5466 5464 5463 5462 5461 5460
5455 5451 5448 5445 5442 5440 5439 5439 5439 5439 5440 5441 5443 5444 5446 5447 5449 5450 5452 5453 5454 5456 5457 5458 5458 5459 5459 5459 5460 5460 5460 5460 5459 5459 5459 5458 5457 5457 5456 5455 5454 5452 5451 5450
5441 5437 5434 5431 5429 5427 5426 5426 5426 5427 5427 5429 5430 5432 5434 5436 5438 5439 5441 5442 5444 5445 5446 5447 5448 5449 5450 5450 5450 5450 5450 5450 5450 5449 5449 5448 5447 5447 5446 5445 5444 5443 5441 5440